Back to catalog

FENGYUN 1C DEB

AliveSSO
NORAD 32093·DEBRIS·🇨🇳 China

Launched May 10, 1999 from Taiyuan Satellite Launch Center

Loading…

Next Passes (next 24 hours)

TLE

FreshSource: Space-Track

Epoch: Sep 13, 2026, 13:58 UTC

1 32093U 99025CQK 26256.58250766  .00000597  00000-0  20543-3 0  9990
2 32093  98.8879 124.4214 0077375 262.4611  96.7780 14.38199997  3535

Track FENGYUN 1C DEB in real time with AllMySat

Download on the App Store